sat.trackr.live / text

‹ back to catalog

STARLINK-37922

NORAD 69971 · 2026-157AE

PAYLOAD ACTIVE UNKNOWN

§ Identity

Operator
Country
US
Launch date
2026-07-09
Launch site
AFETR
Launch vehicle
Mass (kg)
RCS (m²)

Purposes: comms

External: N2YO · Heavens-Above · Gunter

§ Orbital elements

Epoch: 2026-09-20T05:12:30.534048Z

Period
93.85 min
Inclination
53.1590°
Eccentricity
0.0001590
Mean motion
15.34413619 rev/d
Perigee alt
461.6 km
Apogee alt
463.8 km
Semi-major
6,840.8 km
B*
7.3796e-4
RAAN
334.7332°
Arg perigee
91.4106°
Mean anomaly
268.7078°
Rev number
1,133

§ Raw data

STARLINK-379221 69971U 26157AE  26263.21702007  .00024650  00000+0  73796-3 0  99922 69971  53.1590 334.7332 0001590  91.4106 268.7078 15.34413619 11331

JSON: /api/v1/satellites/69971 · /tle

For live sub-satellite position, see the globe view (requires WebGL).

§ Visibility from observer

Set your observer location to see the next 7 days of passes ≥ 10°. The values pass through the URL so the page stays shareable.

No JS? Fill the form by hand. The geolocation button needs JavaScript.